TimeEDT,TemperatureF,Dew PointF,Humidity,Sea Level PressureIn,VisibilityMPH,Wind Direction,Wind SpeedMPH,Gust SpeedMPH,PrecipitationIn,Events,Conditions,WindDirDegrees,DateUTC
12:51 AM,48.9,45.0,86,29.59,-9999.0,West,8.1,-,0.01,,Unknown,260,2012-10-09 04:51:00
1:51 AM,48.0,45.0,89,29.60,-9999.0,West,6.9,-,N/A,,Unknown,270,2012-10-09 05:51:00
2:51 AM,48.0,46.0,93,29.60,-9999.0,Calm,Calm,-,N/A,,Unknown,0,2012-10-09 06:51:00
3:51 AM,48.0,44.1,86,29.60,-9999.0,Variable,3.5,-,N/A,,Unknown,0,2012-10-09 07:51:00
4:51 AM,46.9,43.0,86,29.61,-9999.0,NW,4.6,-,N/A,,Unknown,310,2012-10-09 08:51:00
5:51 AM,46.9,41.0,80,29.62,-9999.0,Variable,4.6,-,N/A,,Unknown,0,2012-10-09 09:51:00
6:51 AM,45.0,39.0,80,29.64,-9999.0,Variable,5.8,-,N/A,,Unknown,0,2012-10-09 10:51:00
7:51 AM,44.1,39.0,82,29.65,-9999.0,WSW,5.8,-,N/A,,Unknown,240,2012-10-09 11:51:00
8:51 AM,45.0,39.0,80,29.65,-9999.0,Variable,6.9,-,N/A,,Unknown,0,2012-10-09 12:51:00
9:51 AM,45.0,39.9,82,29.66,-9999.0,WSW,6.9,-,N/A,,Unknown,250,2012-10-09 13:51:00
10:51 AM,46.0,39.9,79,29.66,-9999.0,Variable,4.6,-,N/A,,Unknown,0,2012-10-09 14:51:00
11:51 AM,48.0,41.0,77,29.65,-9999.0,WSW,6.9,16.1,N/A,,Unknown,250,2012-10-09 15:51:00
12:51 PM,48.9,41.0,74,29.64,-9999.0,WSW,5.8,-,N/A,,Unknown,240,2012-10-09 16:51:00
1:51 PM,50.0,39.9,68,29.63,-9999.0,Variable,5.8,-,N/A,,Unknown,0,2012-10-09 17:51:00
2:51 PM,44.1,41.0,89,29.64,-9999.0,NW,6.9,-,0.09,,Unknown,320,2012-10-09 18:51:00
3:51 PM,43.0,39.0,86,29.63,-9999.0,Variable,5.8,-,0.03,,Unknown,0,2012-10-09 19:51:00
4:51 PM,43.0,39.0,86,29.62,-9999.0,West,4.6,-,N/A,,Unknown,260,2012-10-09 20:51:00
5:51 PM,43.0,39.0,86,29.62,-9999.0,West,4.6,-,N/A,,Unknown,270,2012-10-09 21:51:00
6:51 PM,44.1,37.0,76,29.62,-9999.0,Variable,5.8,-,N/A,,Unknown,0,2012-10-09 22:51:00
7:51 PM,43.0,35.1,74,29.63,-9999.0,Variable,5.8,-,N/A,,Unknown,0,2012-10-09 23:51:00
8:51 PM,43.0,34.0,71,29.63,-9999.0,NW,9.2,16.1,N/A,,Unknown,310,2012-10-10 00:51:00
9:51 PM,44.1,37.0,76,29.64,-9999.0,NW,10.4,23.0,N/A,,Unknown,320,2012-10-10 01:51:00
10:51 PM,44.1,37.9,79,29.65,-9999.0,North,25.3,33.4,N/A,,Unknown,360,2012-10-10 02:51:00
11:51 PM,43.0,35.1,74,29.68,-9999.0,North,24.2,29.9,N/A,,Unknown,350,2012-10-10 03:51:00